Regional Weather Roundup
Issued by NWS Lake Charles, LA

Home | Current Version | Previous Version | Text Only | Print | Product List | Glossary On
Versions: 1 2 3 4 5 6 7 8 9 10 11 12 13 14 15 16 17 18 19 20 21 22 23 24 25 26 27 28 29 30 31 32 33 34 35 36 37 38 39 40 41 42 43 44 45 46 47 48 49 50
999
ASUS44 KLCH 101610
RWRLCH
REGIONAL WEATHER ROUNDUP
NATIONAL WEATHER SERVICE LAKE CHARLES LA
1000 AM CST WED FEB 10 2016

Note: "fair" indicates few or no clouds below 12,000 feet with no
significant weather and/or obstructions to visibility.


ACROSS SOUTHEAST TEXAS

CITY           SKY/WX    TMP DP  RH WIND       PRES   REMARKS
BEAUMONT       SUNNY     54  27  35 VRB5      30.41S
BEAUMONT CITY  FAIR      54  21  28 NE3       30.41S
ORANGE         SUNNY     51  20  30 NE5       30.42F
JASPER         SUNNY     48  23  37 N6        30.42S
$$

ACROSS CENTRAL LOUISIANA

CITY           SKY/WX    TMP DP  RH WIND       PRES   REMARKS
LEESVILLE      SUNNY     44  20  38 NW3       30.31
FULLERTON      FAIR      48  21  34 CALM      30.36S
ALEXANDRIA INT SUNNY     46  18  32 VRB3      30.38S
ESLER FIELD    SUNNY     48  19  31 VRB5      30.38S
DERIDDER         N/A     47  18  31 CALM      30.42S
OAKDALE          N/A     48  23  36 N5        30.40S
OPELOUSAS      FAIR      46  22  38 N3        30.40S
$$

ACROSS SOUTHWEST AND SOUTH CENTRAL LOUISIANA

CITY           SKY/WX    TMP DP  RH WIND       PRES   REMARKS
SULPHUR        SUNNY     50  25  37 MISG      30.42S
LAKE CHARLES   SUNNY     50  23  34 CALM      30.41S
CHENNAULT INT  SUNNY     48  21  34 VRB5      30.41S
CAMERON PHI    SUNNY     50  27  40 VRB6      30.44S
DEQUINCY       FAIR      48  25  40 N3        30.41S
JENNINGS       FAIR      46  23  39 N6        30.40F
LAFAYETTE      SUNNY     49  21  33 N8        30.39F
NEW IBERIA     SUNNY     50  21  32 NE10      30.40F
ABBEVILLE      FAIR      49  23  36 N7        30.40F
PATTERSON      SUNNY     48  23  37 N7        30.41S
SALT POINT       N/A     49  25  39 NW9       30.40R
$$

SELECTED SITES ACROSS THE REGION

CITY           SKY/WX    TMP DP  RH WIND       PRES   REMARKS
HOUSTON BUSH   SUNNY     56  24  29 SE7       30.41S
HOUSTON HOBBY  SUNNY     57  23  26 E6        30.41S
GALVESTON      SUNNY     58  31  35 N7        30.42S
COLLEGE STAT   SUNNY     54  24  31 SE9       30.40S
CONROE         SUNNY     53  21  28 SE6       30.40F
HUNTSVILLE     SUNNY     52  22  30 S7        30.39S
LUFKIN         SUNNY     51  21  30 VRB3      30.39R
SHREVEPORT     SUNNY     47  17  30 CALM      30.37S
MONROE         SUNNY     42  17  36 CALM      30.40R
NATCHEZ MS     SUNNY     43  16  33 NW5       30.38R
BATON ROUGE    SUNNY     48  18  30 NW7       30.38F
N.O. INTL ARPT SUNNY     49  22  34 NW6       30.39R
SLIDELL        SUNNY     47  21  35 VRB3      30.37R
$$

MARINE REPORTS

STATION/POSITION TIME  SKY/WX   TEMP    WIND        PRES    VSBY
                                AIR SEA DIR/SP/G
                 (UTC)          (F)     (DEG/KT/KT) (MB)    (MI)
BUOY 30 S HIGH I 1550            53 56   40/  6/  8 1030.2R
WVE H/P(F/S)=  1/ 3

SEA RIM ST PARK  1600            53     120/  2/  3 1030.3F
PORT ARTHUR      1500               54   20/  7/  9 1029.8R
SABINE PASS N    1500            49 55   40/  5/  6 1031.1R
TEXAS POINT      NOT AVBL
CALCASIEU PASS   1500            47 54   30/  7/  9 1028.8R
LK CHARLES BEACH 1500            45 52              1030.2R
MARSH ISLAND     NOT AVBL
FRESH WATER LOCK 1500            46 50  330/  9/ 11 1029.5R
AMERADA PASS     1500            46 49  290/  5/  6 1029.1R
$$




USA.gov is the U.S. government's official web portal to all federal, state and local government web resources and services.